TimeCDT,TemperatureF,Dew PointF,Humidity,Sea Level PressureIn,VisibilityMPH,Wind Direction,Wind SpeedMPH,Gust SpeedMPH,PrecipitationIn,Events,Conditions,WindDirDegrees,DateUTC
12:50 AM,80.6,77.0,89,29.92,10.0,Calm,Calm,-,N/A,,Partly Cloudy,0,2013-09-02 05:50:00
1:50 AM,80.6,77.0,89,29.92,10.0,Calm,Calm,-,N/A,,Partly Cloudy,0,2013-09-02 06:50:00
2:50 AM,80.6,77.0,89,29.92,10.0,Calm,Calm,-,N/A,,Partly Cloudy,0,2013-09-02 07:50:00
3:50 AM,80.6,77.0,89,29.92,10.0,Calm,Calm,-,N/A,,Partly Cloudy,0,2013-09-02 08:50:00
4:50 AM,78.8,75.2,89,29.91,10.0,South,4.6,-,N/A,,Partly Cloudy,180,2013-09-02 09:50:00
5:50 AM,78.8,75.2,89,29.92,10.0,WSW,3.5,-,N/A,,Partly Cloudy,250,2013-09-02 10:50:00
6:50 AM,78.8,77.0,94,29.93,10.0,Calm,Calm,-,N/A,,Scattered Clouds,0,2013-09-02 11:50:00
7:50 AM,80.6,77.0,89,29.96,10.0,Calm,Calm,-,N/A,,Partly Cloudy,0,2013-09-02 12:50:00
8:50 AM,84.2,77.0,79,29.97,10.0,Calm,Calm,-,N/A,,Scattered Clouds,0,2013-09-02 13:50:00
9:50 AM,86.0,77.0,74,29.99,10.0,SW,8.1,-,N/A,,Scattered Clouds,220,2013-09-02 14:50:00
10:50 AM,87.8,77.0,70,29.99,10.0,WSW,9.2,-,N/A,,Scattered Clouds,240,2013-09-02 15:50:00
11:50 AM,91.4,77.0,63,29.97,10.0,WSW,3.5,-,N/A,,Scattered Clouds,250,2013-09-02 16:50:00
12:50 PM,93.2,77.0,59,29.96,10.0,WSW,5.8,-,N/A,,Scattered Clouds,250,2013-09-02 17:50:00
1:50 PM,96.8,73.4,47,29.94,10.0,Calm,Calm,-,N/A,,Scattered Clouds,0,2013-09-02 18:50:00
2:50 PM,102.2,66.2,31,29.92,10.0,Calm,Calm,-,N/A,,Scattered Clouds,0,2013-09-02 19:50:00
4:22 PM,89.6,64.4,43,29.90,6.0,SSE,12.7,-,N/A,Rain-Thunderstorm,Light Thunderstorms and Rain,160,2013-09-02 21:22:00
4:50 PM,84.2,66.2,55,29.90,6.0,South,13.8,-,N/A,Rain-Thunderstorm,Thunderstorms and Rain,170,2013-09-02 21:50:00
5:18 PM,82.4,66.2,58,29.88,10.0,South,6.9,-,N/A,,Mostly Cloudy,190,2013-09-02 22:18:00
5:50 PM,84.2,71.6,66,29.88,10.0,South,5.8,-,N/A,,Mostly Cloudy,180,2013-09-02 22:50:00
6:50 PM,84.2,71.6,66,29.88,10.0,South,3.5,-,N/A,,Mostly Cloudy,170,2013-09-02 23:50:00
7:50 PM,84.2,71.6,66,29.88,10.0,South,5.8,-,N/A,,Mostly Cloudy,170,2013-09-03 00:50:00
8:50 PM,82.4,71.6,70,29.90,10.0,South,4.6,-,N/A,,Scattered Clouds,180,2013-09-03 01:50:00
9:50 PM,82.4,75.2,79,29.92,10.0,South,3.5,-,N/A,,Scattered Clouds,180,2013-09-03 02:50:00
10:50 PM,80.6,75.2,84,29.94,10.0,SSW,3.5,-,N/A,,Scattered Clouds,200,2013-09-03 03:50:00
11:50 PM,80.6,75.2,84,29.94,10.0,SW,4.6,-,N/A,,Scattered Clouds,230,2013-09-03 04:50:00